Weather History for Lynchburg, VA

Change the Weather History Date:

Saturday, May 11, 2013

  Actual Average Record
Temperature  
Mean Temperature 69 °F 62 °F  
Max Temperature 77 °F 74 °F 94 °F (1896)
Min Temperature 60 °F 49 °F 31 °F (1997)
Degree Days  
Heating Degree Days 0 5  
Month to date heating degree days 75 60  
Since 1 July heating degree days 4217 4383  
Cooling Degree Days 4 1  
Month to date cooling degree days 7 11  
Year to date cooling degree days 47 29  
Growing Degree Days 18 (Base 50)    
Moisture  
Dew Point 61 °F    
Average Humidity 76    
Maximum Humidity 97    
Minimum Humidity 54    
Precipitation  
Precipitation 0.50 in 0.11 in 1.75 in (1912)
Month to date precipitation 3.82 1.24  
Year to date precipitation 18.14 14.20  
Snow  
Snow 0.00 in - - ()
Month to date snowfall 0.0  
Since 1 July snowfall 13.0  
Snow Depth 0.00 in    
Sea Level Pressure  
Sea Level Pressure 29.84 in    
Wind  
Wind Speed 5 mph (SW)    
Max Wind Speed 15 mph    
Max Gust Speed 22 mph    
Visibility 9 miles    
Events Rain , Thunderstorm    
T = Trace of Precipitation, MM = Missing Value Source: NWS Daily Summary

Daily Weather History Graph

Daily Weather History Graph

Search for Another Location

Airport:

Trip Planner

Search our weather history database for the weather conditions in past years. The results will help you decide how hot, cold, wet, or windy it might be!

Date:

Astronomy

May. 11, 2013 Rise Set
Actual Time 6:11 AM EDT 8:15 PM EDT
Civil Twilight 5:42 AM EDT 8:44 PM EDT
Nautical Twilight 5:07 AM EDT 9:19 PM EDT
Astronomical Twilight 4:29 AM EDT 9:57 PM EDT
Moon 7:18 AM EDT (5/11) 9:53 PM EDT (5/11)
Length of Visible Light 15h 02m
Length of Day
14h 04m
Waxing Crescent, 3% of the Moon is Illuminated
May 11
Waxing Crescent
May 18
First Quarter
May 25
Full
May 31
Last Quarter
Jun 8
New

Hourly Weather History & Observations

Time (EDT) Temp. Dew Point Humidity Pressure Visibility Wind Dir Wind Speed Gust Speed Precip Events Conditions
12:54 AM 62.1 °F 59.0 °F 90% 29.91 in 10.0 mi SSW 3.5 mph - 0.00 in Rain Light Rain
1:54 AM 63.0 °F 59.0 °F 87% 29.91 in 10.0 mi South 4.6 mph - 0.00 in   Mostly Cloudy
2:54 AM 62.1 °F 59.0 °F 90% 29.89 in 10.0 mi Calm Calm - 0.00 in   Overcast
3:54 AM 61.0 °F 59.0 °F 93% 29.88 in 10.0 mi Calm Calm - N/A   Clear
4:54 AM 61.0 °F 59.0 °F 93% 29.87 in 10.0 mi Calm Calm - N/A   Overcast
5:54 AM 62.1 °F 60.1 °F 93% 29.86 in 10.0 mi SSE 3.5 mph - 0.01 in Rain Light Rain
6:54 AM 61.0 °F 60.1 °F 97% 29.87 in 7.0 mi Calm Calm - 0.00 in   Mostly Cloudy
7:54 AM 62.1 °F 61.0 °F 96% 29.87 in 10.0 mi West 3.5 mph - N/A   Overcast
8:54 AM 64.0 °F 62.1 °F 93% 29.88 in 9.0 mi SSW 3.5 mph - N/A   Overcast
9:54 AM 68.0 °F 62.6 °F 83% 29.89 in 10.0 mi SSW 6.9 mph - N/A   Overcast
10:54 AM 69.1 °F 62.1 °F 78% 29.86 in 10.0 mi SW 8.1 mph - N/A   Overcast
11:54 AM 72.0 °F 61.0 °F 68% 29.86 in 10.0 mi Variable 6.9 mph - 0.00 in   Mostly Cloudy
12:54 PM 73.0 °F 59.0 °F 61% 29.85 in 10.0 mi WSW 10.4 mph 16.1 mph N/A   Mostly Cloudy
1:54 PM 75.0 °F 57.9 °F 55% 29.84 in 10.0 mi WSW 8.1 mph - N/A   Scattered Clouds
2:54 PM 75.9 °F 57.9 °F 54% 29.82 in 10.0 mi West 9.2 mph 17.3 mph N/A   Scattered Clouds
3:26 PM 66.2 °F 60.8 °F 83% 29.84 in 2.5 mi SW 3.5 mph 18.4 mph 0.07 in Rain Light Rain
3:33 PM 66.2 °F 60.8 °F 83% 29.84 in 10.0 mi SW 4.6 mph - 0.07 in Rain Light Rain
3:40 PM 68.0 °F 62.6 °F 83% 29.84 in 10.0 mi SW 3.5 mph - N/A Thunderstorm Thunderstorm
3:54 PM 70.0 °F 63.0 °F 78% 29.82 in 10.0 mi SSW 6.9 mph - N/A   Mostly Cloudy
4:54 PM 75.9 °F 61.0 °F 60% 29.80 in 10.0 mi West 5.8 mph - N/A   Clear
5:54 PM 75.9 °F 60.1 °F 58% 29.77 in 10.0 mi SW 5.8 mph - N/A   Clear
6:54 PM 71.1 °F 61.0 °F 70% 29.77 in 10.0 mi Calm Calm - N/A   Clear
7:22 PM 68.0 °F 62.6 °F 83% 29.78 in 10.0 mi Calm Calm - N/A Thunderstorm Thunderstorm
7:54 PM 66.9 °F 64.0 °F 90% 29.81 in 0.8 mi West 12.7 mph 21.9 mph 0.09 in Rain , Thunderstorm Heavy Thunderstorms and Rain
8:06 PM 64.4 °F 60.8 °F 88% 29.81 in 1.8 mi SW 4.6 mph 16.1 mph 0.33 in Rain Light Rain
8:08 PM 64.4 °F 60.8 °F 88% 29.81 in 3.0 mi SSW 6.9 mph - 0.33 in Rain Light Rain
8:54 PM 63.0 °F 60.1 °F 90% 29.80 in 10.0 mi WSW 5.8 mph - 0.33 in   Overcast
9:54 PM 62.1 °F 60.1 °F 93% 29.80 in 10.0 mi WSW 3.5 mph - N/A   Clear
10:54 PM 62.1 °F 60.1 °F 93% 29.81 in 10.0 mi SW 4.6 mph - N/A   Clear
11:54 PM 61.0 °F 59.0 °F 93% 29.81 in 10.0 mi Calm Calm - N/A   Scattered Clouds